Change the Weather History Date:

Thursday, October 18, 2012

  Actual Average Record
Temperature  
Mean Temperature 62 °F -  
Max Temperature 73 °F 74 °F 87 °F (1984)
Min Temperature 51 °F 49 °F 32 °F (2001)
Degree Days  
Heating Degree Days 3    
Growing Degree Days 12 (Base 50)    
Moisture  
Dew Point 62 °F    
Average Humidity 90    
Maximum Humidity 100    
Minimum Humidity 65    
Precipitation  
Precipitation 0.00 in - - ()
Sea Level Pressure  
Sea Level Pressure 29.82 in    
Wind  
Wind Speed 4 mph (SSW)    
Max Wind Speed 13 mph    
Max Gust Speed -    
Visibility 9 miles    
Events      
Averages and records for this station are not official NWS values.
T = Trace of Precipitation, MM = Missing Value Source: NWS Daily Summary

Daily Weather History Graph

Daily Weather History Graph

Search for Another Location

Airport or City:

Trip Planner

Search our weather history database for the weather conditions in past years. The results will help you decide how hot, cold, wet, or windy it might be!

Date:

Astronomy

Oct. 18, 2012 Rise Set
Actual Time 7:47 AM EDT 7:02 PM EDT
Civil Twilight 7:22 AM EDT 7:27 PM EDT
Nautical Twilight 6:53 AM EDT 7:56 PM EDT
Astronomical Twilight 6:24 AM EDT 8:25 PM EDT
Moon 11:17 AM EDT (10/18) 9:47 PM EDT (10/18)
Length of Visible Light 12h 05m
Length of Day
11h 15m
Waxing Crescent, 14% of the Moon is Illuminated
Oct 18
Waxing Crescent
Oct 21
First Quarter
Oct 29
Full
Nov 6
Last Quarter
Nov 13
New

Hourly Weather History & Observations

Time (EDT) Temp. Dew Point Humidity Pressure Visibility Wind Dir Wind Speed Gust Speed Precip Events Conditions
12:15 AM 57.2 °F 53.6 °F 88% 29.81 in 10.0 mi SSE 5.8 mph - N/A   Clear
12:35 AM 57.2 °F 53.6 °F 88% 29.81 in 10.0 mi SSE 5.8 mph - N/A   Clear
12:55 AM 59.0 °F 53.6 °F 82% 29.82 in 10.0 mi North - - N/A   Clear
1:15 AM 57.2 °F 55.4 °F 94% 29.81 in 10.0 mi SSE 3.5 mph - N/A   Clear
1:35 AM 57.2 °F 55.4 °F 94% 29.82 in 10.0 mi SSE 4.6 mph - N/A   Clear
1:55 AM 57.2 °F 57.2 °F 100% 29.83 in 10.0 mi SSE 3.5 mph - N/A   Clear
2:15 AM 60.8 °F 57.2 °F 88% 29.82 in 10.0 mi South 4.6 mph - N/A   Clear
2:35 AM 59.0 °F 59.0 °F 100% 29.81 in 10.0 mi South 6.9 mph - N/A   Clear
2:55 AM 59.0 °F 59.0 °F 100% 29.81 in 10.0 mi SSE 4.6 mph - N/A   Clear
3:15 AM 59.0 °F 59.0 °F 100% 29.80 in 10.0 mi SE 4.6 mph - N/A   Clear
3:35 AM 60.8 °F 60.8 °F 100% 29.82 in 10.0 mi South 6.9 mph - N/A   Clear
3:55 AM 60.8 °F 60.8 °F 100% 29.83 in 10.0 mi Calm Calm - N/A   Clear
4:15 AM 59.0 °F 59.0 °F 100% 29.81 in 10.0 mi SSE 5.8 mph - N/A   Scattered Clouds
4:35 AM 59.0 °F 59.0 °F 100% 29.80 in 10.0 mi SSE 4.6 mph - N/A   Partly Cloudy
4:55 AM 59.0 °F 59.0 °F 100% 29.81 in 10.0 mi South 4.6 mph - N/A   Partly Cloudy
5:15 AM 60.8 °F 60.8 °F 100% 29.81 in 10.0 mi Calm Calm - N/A   Scattered Clouds
5:35 AM 60.8 °F 60.8 °F 100% 29.82 in 10.0 mi Calm Calm - N/A   Mostly Cloudy
5:55 AM 60.8 °F - N/A% 29.84 in 6.0 mi North 3.5 mph - N/A   Mostly Cloudy
6:15 AM 59.0 °F - N/A% 29.84 in 3.0 mi NNE 4.6 mph - N/A   Overcast
6:35 AM 59.0 °F - N/A% 29.87 in 2.5 mi North 4.6 mph - N/A   Overcast
6:55 AM 59.0 °F - N/A% 29.84 in 2.5 mi Calm Calm - N/A   Overcast
7:15 AM 59.0 °F - N/A% 29.82 in 5.0 mi SE 3.5 mph - N/A   Scattered Clouds
7:35 AM 57.2 °F - N/A% 29.79 in 5.0 mi SSE 12.7 mph - N/A   Partly Cloudy
7:55 AM 59.0 °F - N/A% 29.79 in 10.0 mi SSE 9.2 mph - N/A   Partly Cloudy
8:15 AM 59.0 °F - N/A% 29.79 in 10.0 mi SSE 8.1 mph - N/A   Partly Cloudy
8:35 AM 59.0 °F - N/A% 29.81 in 10.0 mi Calm Calm - N/A   Clear
8:55 AM 60.8 °F - N/A% 29.82 in 10.0 mi Calm Calm - N/A   Partly Cloudy
9:15 AM 60.8 °F - N/A% 29.84 in 10.0 mi North - - N/A   Mostly Cloudy
9:35 AM 60.8 °F - N/A% 29.84 in 10.0 mi Calm Calm - N/A   Overcast
9:55 AM 62.6 °F - N/A% 29.84 in 10.0 mi South 3.5 mph - N/A   Overcast
10:15 AM 64.4 °F - N/A% 29.84 in 10.0 mi South 5.8 mph - N/A   Overcast
10:35 AM 62.6 °F - N/A% 29.84 in 9.0 mi South 3.5 mph - N/A   Overcast
10:55 AM 64.4 °F - N/A% 29.84 in 9.0 mi South 5.8 mph - N/A   Mostly Cloudy
11:15 AM 64.4 °F - N/A% 29.84 in 9.0 mi South 3.5 mph - N/A   Overcast
11:35 AM 66.2 °F - N/A% 29.84 in 8.0 mi South 5.8 mph - N/A   Mostly Cloudy
11:55 AM 66.2 °F - N/A% 29.84 in 10.0 mi South 6.9 mph - N/A   Mostly Cloudy
12:15 PM 69.8 °F 69.8 °F 100% 29.83 in 10.0 mi SW 6.9 mph - N/A   Overcast
12:35 PM 68.0 °F 68.0 °F 100% 29.83 in 10.0 mi West 6.9 mph - N/A   Overcast
12:55 PM 68.0 °F 68.0 °F 100% 29.82 in 10.0 mi WSW 6.9 mph - N/A   Overcast
1:15 PM 68.0 °F 68.0 °F 100% 29.82 in 10.0 mi WSW 5.8 mph - N/A   Overcast
1:35 PM 68.0 °F 68.0 °F 100% 29.82 in 10.0 mi WSW 5.8 mph - N/A   Overcast
1:55 PM 69.8 °F 69.8 °F 100% 29.81 in 10.0 mi WSW 6.9 mph - N/A   Overcast
2:15 PM 69.8 °F 69.8 °F 100% 29.81 in 10.0 mi West 6.9 mph - N/A   Overcast
2:35 PM 69.8 °F 69.8 °F 100% 29.82 in 10.0 mi WSW 4.6 mph - N/A   Mostly Cloudy
2:55 PM 69.8 °F 69.8 °F 100% 29.80 in 10.0 mi Calm Calm - N/A   Overcast
3:15 PM 73.4 °F 66.2 °F 78% 29.81 in 10.0 mi West 8.1 mph - N/A   Scattered Clouds
3:35 PM 73.4 °F 64.4 °F 73% 29.81 in 10.0 mi WSW 4.6 mph - N/A   Scattered Clouds
3:55 PM 73.4 °F 64.4 °F 73% 29.81 in 10.0 mi SW 8.1 mph - N/A   Partly Cloudy
4:15 PM 73.4 °F 62.6 °F 69% 29.80 in 10.0 mi WSW 8.1 mph - N/A   Clear
4:35 PM 73.4 °F 62.6 °F 69% 29.80 in 10.0 mi WSW 9.2 mph - N/A   Clear
4:55 PM 73.4 °F 62.6 °F 69% 29.80 in 10.0 mi WSW 4.6 mph - N/A   Clear
5:15 PM 73.4 °F 60.8 °F 65% 29.80 in 10.0 mi SSW 5.8 mph - N/A   Clear
5:35 PM 73.4 °F 60.8 °F 65% 29.80 in 10.0 mi SSW 4.6 mph - N/A   Clear
5:55 PM 73.4 °F 60.8 °F 65% 29.80 in 10.0 mi SW 5.8 mph - N/A   Clear
6:15 PM 71.6 °F 62.6 °F 73% 29.80 in 10.0 mi Calm Calm - N/A   Clear
6:35 PM 69.8 °F 62.6 °F 78% 29.80 in 10.0 mi North - - N/A   Clear
6:55 PM 66.2 °F 64.4 °F 94% 29.81 in 10.0 mi North - - N/A   Clear
7:15 PM 62.6 °F - N/A% 29.81 in 10.0 mi Calm Calm - N/A   Clear
7:35 PM 60.8 °F - N/A% 29.81 in 10.0 mi Calm Calm - N/A   Clear
7:55 PM 60.8 °F - N/A% 29.82 in 10.0 mi Calm Calm - N/A   Clear
8:15 PM 60.8 °F - N/A% 29.82 in 10.0 mi Calm Calm - N/A   Scattered Clouds
8:35 PM 59.0 °F - N/A% 29.83 in 10.0 mi Calm Calm - N/A   Scattered Clouds
8:55 PM 57.2 °F - N/A% 29.83 in 10.0 mi Calm Calm - N/A   Partly Cloudy
9:15 PM 57.2 °F - N/A% 29.84 in 10.0 mi Calm Calm - N/A   Clear
9:35 PM 57.2 °F - N/A% 29.84 in 7.0 mi Calm Calm - N/A   Clear
9:55 PM 55.4 °F - N/A% 29.85 in 8.0 mi Calm Calm - N/A   Clear
10:15 PM 53.6 °F - N/A% 29.85 in 0.5 mi Calm Calm - N/A   Unknown
10:35 PM 53.6 °F - N/A% 29.85 in 0.2 mi Calm Calm - N/A   Mostly Cloudy
10:55 PM 53.6 °F - N/A% 29.85 in 0.5 mi Calm Calm - N/A   Mostly Cloudy
11:15 PM 51.8 °F - N/A% 29.86 in 0.2 mi Calm Calm - N/A   Unknown
11:35 PM 51.8 °F - N/A% 29.86 in 1.8 mi Calm Calm - N/A   Scattered Clouds